Location: Bismarck
(46.7731°N, 100.8200°W)
Time: 14:23:27
(UTC-06:00)

Amateur Radio Satellites - All Passes

Search period start: 22 January 2017 13:53
Search period end: 23 January 2017 13:53
Location: Bismarck, 46.7731°N, 100.8200°W

Satellite Date Start Highest point End Downlink Frequencies (MHz)
Time Altitude Azimuth
AO-7 22 Jan 13:54:26 14:01:51 37° 55° (NE) 14:09:18 29.400- 29.500
Oscar 19 22 Jan 13:57:47 14:02:39 40° 262° (W) 14:07:33 437.125/150
AIST 1 22 Jan 13:58:25 14:02:33 45° 93° (E) 14:06:42
CUBEBUG 1 22 Jan 14:04:09 14:07:01 17° 299° (WNW) 14:09:52 437.445
Cosmos 2504 22 Jan 14:15:57 14:23:11 32° 84° (E) 14:30:04 435.465 / 435.565
Cosmos 2491 22 Jan 14:18:20 14:26:57 63° 268° (W) 14:35:35 435.465 / 435.565
AO-85 22 Jan 14:19:31 14:24:11 78° 124° (SE) 14:28:30 145.980
YUBILEINY 22 Jan 14:26:15 14:34:55 64° 92° (E) 14:43:37 435.215
AISAT 22 Jan 14:26:43 14:29:30 17° 300° (WNW) 14:32:15 437.250
50 SAT 22 Jan 14:27:38 14:29:27 14° 298° (WNW) 14:31:17 437.505
Gurwin Techsat 1B 22 Jan 14:30:14 14:35:10 39° 263° (W) 14:40:08 435.225
O/OREOS (USA 219) 22 Jan 14:30:53 14:33:19 14° 45° (NE) 14:35:43 437.305
ITUPSAT 1 22 Jan 14:31:41 14:35:02 18° 91° (E) 14:38:21 437.325
DANDE 22 Jan 14:34:20 14:41:49 48° 71° (ENE) 14:49:50 436.750
ITAMSAT 1 22 Jan 14:45:12 14:50:20 70° 71° (ENE) 14:55:30 435.822/435.867
TISAT 1 22 Jan 14:54:07 14:58:13 57° 288° (WNW) 15:02:19 437.305
BEESAT 22 Jan 15:03:58 15:08:25 37° 97° (E) 15:12:51 436.000
CUSAT 1 22 Jan 15:04:33 15:12:18 55° 267° (W) 15:19:26 437.405
SWISSCUBE 22 Jan 15:05:47 15:10:23 42° 99° (E) 15:14:55 437.505
UKube-1 22 Jan 15:19:04 15:21:19 14° 301° (WNW) 15:23:34 .
SO-50 22 Jan 15:25:00 15:29:06 32° 41° (NE) 15:33:08 436.795
BRITE-PL 22 Jan 15:26:59 15:31:07 21° 61° (ENE) 15:35:11 437.365/2234.400
AIST 1 22 Jan 15:37:14 15:40:24 19° 292° (WNW) 15:43:33
AO-7 22 Jan 15:45:58 15:54:14 63° 256° (WSW) 16:02:34 29.400- 29.500
BEESAT 3 22 Jan 15:48:52 15:51:58 23° 115° (ESE) 15:55:05 437.485
AO-85 22 Jan 16:01:44 16:05:02 20° 324° (NW) 16:08:11 145.980
Cosmos 2504 22 Jan 16:07:38 16:16:08 62° 283° (WNW) 16:24:07 435.465 / 435.565
ITUPSAT 1 22 Jan 16:08:30 16:13:14 58° 289° (WNW) 16:17:56 437.325
O/OREOS (USA 219) 22 Jan 16:08:53 16:13:24 88° 57° (ENE) 16:17:57 437.305
MOZHAYETS 4 22 Jan 16:15:44 16:20:22 62° 101° (E) 16:24:58
CUTE-I 22 Jan 16:16:23 16:18:24 12° 53° (NE) 16:20:24 437.470
DANDE 22 Jan 16:17:10 16:24:34 47° 269° (W) 16:32:24 436.750
Cosmos 2491 22 Jan 16:18:29 16:21:52 13° 290° (WNW) 16:25:16 435.465 / 435.565
YUBILEINY 22 Jan 16:24:32 16:32:19 34° 295° (WNW) 16:40:11 435.215
ITAMSAT 1 22 Jan 16:27:02 16:30:20 17° 270° (W) 16:33:38 435.822/435.867
M-CUBED/EXP-1 PRIME 22 Jan 16:32:12 16:34:43 20° 100° (E) 16:37:11 437.505
BEESAT 2 22 Jan 16:38:22 16:41:54 32° 117° (ESE) 16:45:29 435.950
KKS-1 22 Jan 16:38:22 16:42:23 33° 97° (E) 16:46:23 437.445
BEESAT 22 Jan 16:41:58 16:46:05 29° 295° (WNW) 16:50:12 436.000
SWISSCUBE 22 Jan 16:44:00 16:47:57 26° 297° (WNW) 16:51:53 437.505
HORYU 2 22 Jan 16:48:31 16:52:41 43° 70° (ENE) 16:56:53 437.375
CUSAT 1 22 Jan 16:50:02 16:52:26 12° 288° (WNW) 16:54:49 437.405
HO-68 22 Jan 16:53:10 16:55:23 12° 41° (NE) 16:57:36 435.675
GOMX 1 22 Jan 16:55:35 17:00:41 47° 70° (ENE) 17:05:30 467.674
Cubesat XI-IV 22 Jan 16:57:36 17:01:52 25° 61° (ENE) 17:06:08 437.490
NOAA 15 22 Jan 16:57:43 17:02:05 27° 62° (ENE) 17:06:28 137.62
BRITE-PL 22 Jan 17:03:23 17:09:04 71° 258° (WSW) 17:14:38 437.365/2234.400
SO-50 22 Jan 17:05:24 17:09:39 41° 241° (WSW) 17:13:51 436.795
AUBIESAT-1 22 Jan 17:06:15 17:09:27 41° 105° (ESE) 17:12:35 437.475
CUBESAT XI-V 22 Jan 17:08:06 17:12:25 35° 96° (E) 17:16:42 437.345
NOAA 18 22 Jan 17:21:33 17:25:57 25° 60° (ENE) 17:30:20 137.9125
DOVE 4 22 Jan 17:22:58 17:27:22 35° 69° (ENE) 17:31:33 437.250
STARS 22 Jan 17:24:38 17:28:51 46° 100° (E) 17:33:03 437.465
BEESAT 3 22 Jan 17:25:38 17:29:21 41° 313° (NW) 17:33:09 437.485
AO-7 22 Jan 17:45:30 17:48:43 12° 277° (W) 17:51:58 29.400- 29.500
O/OREOS (USA 219) 22 Jan 17:51:02 17:52:05 11° 263° (W) 17:53:08 437.305
CUTE-I 22 Jan 17:52:13 17:57:29 69° 72° (ENE) 18:02:47 437.470
LilacSat-2 22 Jan 17:52:56 17:56:41 71° 76° (ENE) 18:00:30 437.200
MOZHAYETS 4 22 Jan 17:53:57 17:57:04 18° 299° (WNW) 18:00:10
M-CUBED/EXP-1 PRIME 22 Jan 18:06:24 18:09:17 26° 298° (WNW) 18:12:04 437.505
CANX-2 22 Jan 18:06:30 18:09:00 15° 61° (ENE) 18:11:30 2200.000
Cosmos 2504 22 Jan 18:07:02 18:11:18 15° 306° (NW) 18:15:27 435.465 / 435.565
SEEDS 22 Jan 18:13:53 18:14:58 11° 58° (ENE) 18:16:03 437.485
KKS-1 22 Jan 18:15:05 18:18:51 28° 295° (WNW) 18:22:37 437.445
BEESAT 2 22 Jan 18:16:05 18:19:40 31° 317° (NW) 18:23:18 435.950
Cosmos 2499 22 Jan 18:24:20 18:29:27 18° 78° (ENE) 18:34:23 435.465 / 435.565
HORYU 2 22 Jan 18:26:06 18:29:27 21° 267° (W) 18:32:48 437.375
CINEMA 3 22 Jan 18:33:50 18:37:54 40° 70° (ENE) 18:41:50 145.822/145.860
GOMX 1 22 Jan 18:34:30 18:38:54 26° 267° (W) 18:43:09 467.674
HO-68 22 Jan 18:34:37 18:41:23 46° 63° (ENE) 18:48:10 435.675
Cubesat XI-IV 22 Jan 18:36:26 18:41:37 53° 260° (W) 18:46:50 437.490
NOAA 15 22 Jan 18:36:27 18:41:34 50° 260° (W) 18:46:46 137.62
AUBIESAT-1 22 Jan 18:41:40 18:43:35 15° 303° (WNW) 18:45:29 437.475
CUBESAT XI-V 22 Jan 18:45:40 18:49:42 29° 294° (WNW) 18:53:42 437.345
BRITE-PL 22 Jan 18:46:48 18:48:23 11° 276° (W) 18:49:57 437.365/2234.400
AIST 2 22 Jan 18:58:44 19:01:54 22° 114° (ESE) 19:05:07 435.215
DOVE 4 22 Jan 19:00:47 19:05:05 30° 265° (W) 19:09:11 437.250
NOAA 18 22 Jan 19:00:52 19:06:15 56° 259° (WSW) 19:11:40 137.9125
STARS 22 Jan 19:01:39 19:04:55 21° 297° (WNW) 19:08:10 437.465
BEESAT 3 22 Jan 19:07:25 19:08:01 10° 335° (NNW) 19:08:38 437.485
CUTE 1.7 + AOD 2 22 Jan 19:10:24 19:14:32 54° 72° (ENE) 19:18:44 437.475
CUBEBUG 2 22 Jan 19:12:13 19:15:36 25° 66° (ENE) 19:19:00 437.445
GONETS M04 22 Jan 19:15:18 19:22:48 34° 83° (E) 19:30:20
FUNcube-1 22 Jan 19:25:07 19:27:08 13° 60° (ENE) 19:29:10 145.935
CUTE-I 22 Jan 19:34:31 19:38:03 18° 270° (W) 19:41:37 437.470
UWE-3 22 Jan 19:35:04 19:38:34 27° 67° (ENE) 19:42:07 435.000/436.395/437.385
CANX-2 22 Jan 19:40:08 19:44:21 64° 259° (WSW) 19:48:38 2200.000
SEEDS 22 Jan 19:45:42 19:49:57 87° 71° (ENE) 19:54:14 437.485
COMPASS 1 22 Jan 19:46:14 19:50:22 59° 73° (ENE) 19:54:32 437.405
ZACube-1 22 Jan 19:48:11 19:51:30 24° 65° (ENE) 19:54:52 437.345
STRAND 1 22 Jan 19:53:36 19:58:38 50° 100° (E) 20:03:37 437.568
AAUSAT CUBESAT 2 22 Jan 19:54:54 19:58:59 57° 73° (ENE) 20:03:08 437.432
CINEMA 3 22 Jan 20:11:52 20:15:11 21° 267° (W) 20:18:27 145.822/145.860
Cosmos 2499 22 Jan 20:13:13 20:21:34 86° 97° (E) 20:29:18 435.465 / 435.565
Oscar 11 22 Jan 20:18:50 20:22:54 42° 70° (ENE) 20:27:01 145.826/435.025
HO-68 22 Jan 20:22:27 20:29:09 41° 262° (W) 20:35:55 435.675
AIST 2 22 Jan 20:36:05 20:40:05 47° 312° (NW) 20:44:10 435.215
CUTE 1.7 + AOD 2 22 Jan 20:48:04 20:50:43 16° 270° (W) 20:53:23 437.475
CUBEBUG 2 22 Jan 20:48:24 20:52:08 32° 264° (W) 20:55:53 437.445
DELFI C3 22 Jan 20:49:34 20:53:05 30° 68° (ENE) 20:56:38 145.870
FUNcube-1 22 Jan 20:58:43 21:02:49 70° 258° (WSW) 21:07:01 145.935
AO-85 22 Jan 21:08:35 21:11:44 22° 38° (NE) 21:14:49 145.980
GONETS M04 22 Jan 21:10:32 21:19:07 61° 285° (WNW) 21:27:49
UWE-3 22 Jan 21:11:22 21:15:00 29° 265° (W) 21:18:39 435.000/436.395/437.385
HUMSAT D 22 Jan 21:11:24 21:14:59 30° 67° (ENE) 21:18:39 437.325/437.525
PRISM 22 Jan 21:13:18 21:16:03 17° 92° (E) 21:18:47 437.425
ZACube-1 22 Jan 21:23:51 21:27:39 35° 264° (W) 21:31:29 437.345
COMPASS 1 22 Jan 21:23:59 21:26:18 14° 271° (W) 21:28:38 437.405
AAUSAT CUBESAT 2 22 Jan 21:32:26 21:34:49 15° 270° (W) 21:37:14 437.432
STRAND 1 22 Jan 21:33:23 21:37:30 25° 298° (WNW) 21:41:39 437.568
Oscar 11 22 Jan 21:55:57 21:59:14 21° 268° (W) 22:02:33 145.826/435.025
RS-15 22 Jan 22:04:27 22:12:38 22° 97° (E) 22:20:59 29.354- 29.394
ISS 22 Jan 22:08:58 22:11:59 36° 144° (SE) 22:15:01 145.825
Cosmos 2499 22 Jan 22:09:33 22:15:38 22° 298° (WNW) 22:21:27 435.465 / 435.565
AISAT 22 Jan 22:16:38 22:17:31 11° 56° (NE) 22:18:25 437.250
AIST 2 22 Jan 22:17:55 22:19:35 12° 334° (NNW) 22:21:17 435.215
JAS-2 22 Jan 22:21:14 22:26:32 21° 88° (E) 22:32:02 435.910
BY70-1 22 Jan 22:23:57 22:26:54 39° 71° (ENE) 22:30:02 436.1900
UNISAT 6 22 Jan 22:24:22 22:28:26 34° 97° (E) 22:32:34 437.425
DELFI C3 22 Jan 22:24:32 22:27:54 25° 266° (W) 22:31:17 145.870
TIGRISAT 22 Jan 22:36:44 22:40:59 42° 99° (E) 22:45:17 435.000
ESTCUBE 1 22 Jan 22:46:19 22:50:38 45° 70° (ENE) 22:54:59 437.505/2401.250
HUMSAT D 22 Jan 22:47:04 22:50:35 27° 265° (W) 22:54:11 437.325/437.525
VELOX 1 22 Jan 22:47:14 22:50:24 19° 62° (ENE) 22:53:34 145.980
PRISM 22 Jan 22:47:38 22:51:36 46° 290° (WNW) 22:55:31 437.425
AO-85 22 Jan 22:48:34 22:52:23 51° 239° (WSW) 22:56:10 145.980
ANTELSAT 22 Jan 22:52:35 22:57:01 65° 102° (ESE) 23:01:32 437.575/2403.000
SPROUT 22 Jan 22:56:06 22:58:49 17° 62° (ENE) 23:01:32 437.525
UKube-1 22 Jan 23:05:54 23:07:21 12° 57° (ENE) 23:08:49 .
DX 1 22 Jan 23:10:40 23:13:30 17° 61° (ENE) 23:16:19 434.975-435.025
GONETS M04 22 Jan 23:13:39 23:18:12 15° 310° (NW) 23:22:47
BEESAT 2 22 Jan 23:16:40 23:18:18 12° 28° (NNE) 23:19:58 435.950
QB50P1 22 Jan 23:20:01 23:22:04 13° 89° (E) 23:24:09 145.935-145.965
POLYITAN 1 22 Jan 23:24:42 23:27:12 15° 90° (E) 23:29:42 437.675
CUBEBUG 1 22 Jan 23:25:08 23:29:29 66° 74° (ENE) 23:33:51 437.445
QB50P2 22 Jan 23:25:52 23:28:36 17° 91° (E) 23:31:20 145.880/145.840
50 SAT 22 Jan 23:30:26 23:33:37 31° 69° (ENE) 23:36:50 437.505
ISS 22 Jan 23:45:13 23:48:25 50° 342° (NNW) 23:51:36 145.825
POPSAT HIP 1 22 Jan 23:46:06 23:49:35 24° 94° (E) 23:53:02 437.405
AISAT 22 Jan 23:48:46 23:53:12 77° 74° (ENE) 23:57:39 437.250
PCSat 22 Jan 23:48:58 23:52:51 20° 107° (ESE) 23:56:44 145.827
DUCHIFAT 1 22 Jan 23:53:24 23:56:53 25° 94° (E) 00:00:21 145.980
BY70-1 22 Jan 23:55:55 23:57:24 13° 270° (W) 23:58:55 436.1900
NANOSAT C BR1 23 Jan 00:00:13 00:04:00 32° 96° (E) 00:07:47 145.865
UNISAT 6 23 Jan 00:01:16 00:05:03 28° 294° (WNW) 00:08:53 437.425
BEESAT 3 23 Jan 00:02:16 00:06:02 37° 46° (NE) 00:09:46 437.485
AIST 1 23 Jan 00:03:13 00:05:53 16° 67° (ENE) 00:08:30
JAS-2 23 Jan 00:05:01 00:12:16 89° 282° (WNW) 00:20:05 435.910
Cosmos 2504 23 Jan 00:06:26 00:09:00 12° 50° (NE) 00:11:32 435.465 / 435.565
RS-15 23 Jan 00:11:06 00:22:59 77° 121° (ESE) 00:35:20 29.354- 29.394
TIGRISAT 23 Jan 00:13:57 00:17:26 23° 296° (WNW) 00:21:00 435.000
TISAT 1 23 Jan 00:14:13 00:16:56 17° 62° (ENE) 00:19:39 437.305
BUGSAT 1 23 Jan 00:17:19 00:19:54 16° 92° (E) 00:22:29 437.445
VELOX 1 23 Jan 00:22:09 00:26:30 52° 260° (W) 00:30:51 145.980
ESTCUBE 1 23 Jan 00:24:10 00:27:39 21° 268° (W) 00:31:09 437.505/2401.250
SPROUT 23 Jan 00:30:09 00:34:19 56° 259° (W) 00:38:31 437.525
ANTELSAT 23 Jan 00:30:30 00:33:16 16° 299° (WNW) 00:36:04 437.575/2403.000
YUBILEINY 23 Jan 00:32:58 00:41:01 37° 67° (ENE) 00:48:58 435.215
UKube-1 23 Jan 00:38:22 00:42:41 88° 81° (E) 00:47:03 .
SWISSCUBE 23 Jan 00:41:48 00:42:36 10° 54° (NE) 00:43:25 437.505
DX 1 23 Jan 00:44:57 00:49:15 59° 258° (WSW) 00:53:36 434.975-435.025
BEESAT 2 23 Jan 00:53:02 00:57:01 52° 49° (NE) 01:00:58 435.950
QB50P1 23 Jan 00:54:05 00:58:16 64° 287° (WNW) 01:02:27 145.935-145.965
POLYITAN 1 23 Jan 00:59:11 01:03:21 57° 288° (WNW) 01:07:31 437.675
QB50P2 23 Jan 01:00:35 01:04:42 51° 288° (WNW) 01:08:49 145.880/145.840
CUBEBUG 1 23 Jan 01:03:53 01:06:13 14° 271° (W) 01:08:32 437.445
50 SAT 23 Jan 01:04:15 01:06:54 19° 266° (W) 01:09:34 437.505
POPSAT HIP 1 23 Jan 01:21:35 01:25:25 35° 292° (WNW) 01:29:16 437.405
ISS 23 Jan 01:22:19 01:25:19 33° 2° (N) 01:28:19 145.825
Cosmos 2491 23 Jan 01:27:23 01:34:53 34° 83° (E) 01:42:23 435.465 / 435.565
AISAT 23 Jan 01:28:28 01:30:13 12° 272° (W) 01:31:58 437.250
DUCHIFAT 1 23 Jan 01:28:49 01:32:37 33° 292° (WNW) 01:36:23 145.980
PCSat 23 Jan 01:30:18 01:35:41 69° 305° (NW) 01:41:09 145.827
NANOSAT C BR1 23 Jan 01:36:05 01:39:38 27° 294° (WNW) 01:43:10 145.865
AIST 2 23 Jan 01:39:36 01:40:40 11° 23° (NNE) 01:41:44 435.215
AIST 1 23 Jan 01:39:39 01:43:50 54° 265° (W) 01:47:59
BEESAT 3 23 Jan 01:40:09 01:43:30 26° 244° (WSW) 01:46:52 437.485
ITUPSAT 1 23 Jan 01:40:52 01:45:00 30° 65° (ENE) 01:49:08 437.325
MOZHAYETS 4 23 Jan 01:46:45 01:48:17 12° 56° (NE) 01:49:48
TISAT 1 23 Jan 01:48:06 01:52:11 53° 260° (W) 01:56:17 437.305
JAS-2 23 Jan 01:51:13 01:56:31 23° 304° (WNW) 02:02:07 435.910
BUGSAT 1 23 Jan 01:51:38 01:55:32 48° 289° (WNW) 01:59:27 437.445
Cosmos 2504 23 Jan 01:57:04 02:04:24 58° 76° (ENE) 02:11:25 435.465 / 435.565
Oscar 19 23 Jan 02:05:56 02:11:03 58° 101° (E) 02:16:06 437.125/150
BEESAT 23 Jan 02:12:53 02:17:33 59° 71° (ENE) 02:22:15 436.000
SWISSCUBE 23 Jan 02:14:47 02:19:29 68° 73° (ENE) 02:24:15 437.505
AUBIESAT-1 23 Jan 02:22:22 02:23:57 12° 55° (NE) 02:25:29 437.475
RS-15 23 Jan 02:25:06 02:36:38 47° 329° (NNW) 02:48:30 29.354- 29.394
CUSAT 1 23 Jan 02:27:38 02:32:15 25° 82° (E) 02:37:43 437.405
YUBILEINY 23 Jan 02:29:40 02:38:14 57° 270° (W) 02:46:43 435.215
BEESAT 2 23 Jan 02:31:35 02:34:28 19° 247° (WSW) 02:37:19 435.950
Gurwin Techsat 1B 23 Jan 02:42:51 02:48:11 68° 103° (ESE) 02:53:28 435.225
PHONESAT 2.4 23 Jan 02:43:22 02:44:48 15° 174° (S) 02:46:15 2401.200-2431.200
ITAMSAT 1 23 Jan 02:55:55 02:59:39 20° 91° (E) 03:03:24 435.822/435.867
ISS 23 Jan 02:58:55 03:02:09 65° 22° (NNE) 03:05:23 145.825
AIST 2 23 Jan 03:16:18 03:20:18 39° 45° (NE) 03:24:18 435.215
PCSat 23 Jan 03:16:27 03:20:06 18° 328° (NNW) 03:23:47 145.827
ITUPSAT 1 23 Jan 03:18:21 03:22:44 36° 263° (W) 03:27:08 437.325
M-CUBED/EXP-1 PRIME 23 Jan 03:19:38 03:23:47 53° 67° (ENE) 03:27:38 437.505
MOZHAYETS 4 23 Jan 03:20:05 03:24:39 81° 75° (ENE) 03:29:17
Cosmos 2491 23 Jan 03:22:39 03:31:13 60° 285° (WNW) 03:39:53 435.465 / 435.565
KKS-1 23 Jan 03:38:52 03:43:05 44° 69° (ENE) 03:47:18 437.445
AO-7 23 Jan 03:44:21 03:52:04 39° 98° (E) 03:59:41 29.400- 29.500
Oscar 19 23 Jan 03:46:02 03:49:59 22° 299° (WNW) 03:53:53 437.125/150
DANDE 23 Jan 03:47:05 03:50:49 28° 85° (E) 03:55:35 436.750
Cosmos 2504 23 Jan 03:51:12 03:57:15 29° 277° (W) 04:03:08 435.465 / 435.565
BEESAT 23 Jan 03:52:31 03:55:43 18° 269° (W) 03:58:58 436.000
AUBIESAT-1 23 Jan 03:53:43 03:57:54 83° 251° (WSW) 04:01:48 437.475
SWISSCUBE 23 Jan 03:54:57 03:57:47 15° 271° (W) 04:00:36 437.505
CUSAT 1 23 Jan 04:07:50 04:13:25 61° 287° (WNW) 04:20:33 437.405
CUBESAT XI-V 23 Jan 04:13:47 04:18:18 48° 70° (ENE) 04:22:51 437.345
PHONESAT 2.4 23 Jan 04:16:53 04:18:10 14° 190° (S) 04:19:27 2401.200-2431.200
STARS 23 Jan 04:23:40 04:27:57 59° 72° (ENE) 04:32:16 437.465
Gurwin Techsat 1B 23 Jan 04:23:48 04:27:38 21° 301° (WNW) 04:31:27 435.225
YUBILEINY 23 Jan 04:30:36 04:32:55 11° 292° (WNW) 04:35:14 435.215
ITAMSAT 1 23 Jan 04:34:24 04:39:33 62° 289° (WNW) 04:44:41 435.822/435.867
ISS 23 Jan 04:35:43 04:38:24 24° 220° (SW) 04:41:06 145.825
RS-15 23 Jan 04:42:18 04:53:08 33° 2° (N) 05:03:57 29.354- 29.394
AIST 2 23 Jan 04:55:01 04:58:40 28° 244° (WSW) 05:02:19 435.215
M-CUBED/EXP-1 PRIME 23 Jan 04:55:43 04:58:27 17° 261° (W) 05:01:04 437.505
MOZHAYETS 4 23 Jan 05:00:38 05:02:25 12° 273° (W) 05:04:14
BRITE-PL 23 Jan 05:06:25 05:10:41 30° 93° (E) 05:14:39 437.365/2234.400
KKS-1 23 Jan 05:16:28 05:19:50 21° 267° (W) 05:23:14 437.445
GONETS M04 23 Jan 05:21:08 05:27:24 21° 56° (ENE) 05:33:38
Cosmos 2491 23 Jan 05:25:50 05:30:19 15° 310° (NW) 05:34:49 435.465 / 435.565
DANDE 23 Jan 05:29:15 05:33:20 35° 294° (WNW) 05:38:42 436.750
STRAND 1 23 Jan 05:35:59 05:38:54 16° 56° (ENE) 05:41:49 437.568
AO-7 23 Jan 05:37:00 05:45:06 56° 298° (WNW) 05:53:09 29.400- 29.500
CUBESAT XI-V 23 Jan 05:52:20 05:55:55 21° 268° (W) 05:59:32 437.345
CUSAT 1 23 Jan 05:54:07 05:57:17 14° 312° (NW) 06:00:43 437.405
Cosmos 2499 23 Jan 06:01:29 06:07:54 34° 68° (ENE) 06:14:12 435.465 / 435.565
STARS 23 Jan 06:02:05 06:04:41 15° 269° (W) 06:07:18 437.465
CUTE-I 23 Jan 06:06:57 06:11:02 22° 92° (E) 06:15:05 437.470
HORYU 2 23 Jan 06:12:30 06:16:55 58° 102° (ESE) 06:21:19 437.375
ITAMSAT 1 23 Jan 06:16:50 06:18:00 11° 308° (NW) 06:19:09 435.822/435.867
O/OREOS (USA 219) 23 Jan 06:23:53 06:28:16 58° 111° (ESE) 06:32:41 437.305
GOMX 1 23 Jan 06:32:40 06:37:07 85° 105° (ESE) 06:41:19 467.674
BRITE-PL 23 Jan 06:44:51 06:49:11 33° 294° (WNW) 06:53:14 437.365/2234.400
NOAA 15 23 Jan 06:48:24 06:53:35 49° 100° (E) 06:58:43 137.62
PCSat 23 Jan 06:50:11 06:52:07 12° 21° (NNE) 06:54:03 145.827
Cubesat XI-IV 23 Jan 06:50:27 06:55:39 49° 99° (E) 07:00:50 437.490
DOVE 4 23 Jan 06:56:00 07:00:08 57° 101° (E) 07:04:13 437.250
RS-15 23 Jan 06:57:21 07:09:23 51° 35° (NE) 07:21:05 29.354- 29.394
LilacSat-2 23 Jan 06:57:22 07:01:15 73° 102° (ESE) 07:05:07 437.200
STRAND 1 23 Jan 07:12:17 07:17:23 87° 255° (WSW) 07:22:32 437.568
GONETS M04 23 Jan 07:16:54 07:25:48 81° 80° (E) 07:34:41
NOAA 18 23 Jan 07:19:48 07:25:05 48° 100° (E) 07:30:21 137.9125
SO-50 23 Jan 07:22:01 07:26:09 31° 117° (ESE) 07:30:16 436.795
CANX-2 23 Jan 07:22:59 07:26:02 19° 91° (E) 07:29:03 2200.000
SEEDS 23 Jan 07:28:31 07:30:15 12° 88° (E) 07:32:00 437.485
AO-7 23 Jan 07:31:23 07:36:07 17° 321° (NW) 07:40:52 29.400- 29.500
CUTE-I 23 Jan 07:46:12 07:51:27 58° 290° (WNW) 07:56:41 437.470
HO-68 23 Jan 07:46:27 07:52:58 36° 96° (E) 07:59:25 435.675
HORYU 2 23 Jan 07:50:02 07:53:03 18° 299° (WNW) 07:56:03 437.375
Cosmos 2499 23 Jan 07:54:29 08:01:15 48° 270° (W) 08:07:58 435.465 / 435.565
CINEMA 3 23 Jan 08:01:45 08:05:57 68° 101° (ESE) 08:10:16 145.822/145.860
O/OREOS (USA 219) 23 Jan 08:04:47 08:08:04 20° 310° (NW) 08:11:21 437.305
PRISM 23 Jan 08:05:15 08:08:18 20° 63° (ENE) 08:11:19 437.425
GOMX 1 23 Jan 08:12:51 08:14:29 12° 303° (WNW) 08:16:05 467.674
CUTE 1.7 + AOD 2 23 Jan 08:27:54 08:32:13 74° 102° (ESE) 08:36:29 437.475
NOAA 15 23 Jan 08:28:43 08:33:05 27° 298° (WNW) 08:37:27 137.62
Cubesat XI-IV 23 Jan 08:31:03 08:35:28 27° 298° (WNW) 08:39:52 437.490
PCSat 23 Jan 08:32:14 08:37:14 35° 45° (NE) 08:42:11 145.827
LilacSat-2 23 Jan 08:33:35 08:34:59 12° 299° (WNW) 08:36:24 437.200
DOVE 4 23 Jan 08:34:58 08:37:25 15° 299° (WNW) 08:39:50 437.250
CUBEBUG 2 23 Jan 08:35:15 08:39:22 39° 98° (E) 08:43:34 437.445
JAS-2 23 Jan 08:41:37 08:42:44 11° 45° (NE) 08:43:52 435.910
FUNcube-1 23 Jan 08:44:10 08:47:17 19° 91° (E) 08:50:26 145.935
STRAND 1 23 Jan 08:55:29 08:57:20 12° 273° (W) 08:59:11 437.568
UWE-3 23 Jan 08:56:54 09:01:05 42° 98° (E) 09:05:22 435.000/436.395/437.385
CANX-2 23 Jan 08:57:59 09:02:08 47° 289° (WNW) 09:06:15 2200.000
NOAA 18 23 Jan 09:00:55 09:05:30 28° 299° (WNW) 09:10:05 137.9125
COMPASS 1 23 Jan 09:01:23 09:05:37 77° 102° (ESE) 09:09:48 437.405
SO-50 23 Jan 09:02:05 09:06:32 41° 315° (NW) 09:10:57 436.795
SEEDS 23 Jan 09:02:11 09:06:26 71° 287° (WNW) 09:10:40 437.485
ZACube-1 23 Jan 09:08:29 09:12:33 34° 97° (E) 09:16:38 437.345
AAUSAT CUBESAT 2 23 Jan 09:09:22 09:13:34 72° 102° (ESE) 09:17:43 437.432
RS-15 23 Jan 09:10:26 09:22:38 68° 242° (WSW) 09:34:22 29.354- 29.394
GONETS M04 23 Jan 09:14:58 09:21:37 25° 282° (WNW) 09:28:15
UNISAT 6 23 Jan 09:25:59 09:29:58 40° 69° (ENE) 09:33:59 437.425
CUTE-I 23 Jan 09:29:42 09:30:24 10° 309° (NW) 09:31:07 437.470
HO-68 23 Jan 09:34:00 09:40:55 52° 295° (WNW) 09:47:47 435.675
TIGRISAT 23 Jan 09:38:10 09:42:15 50° 71° (ENE) 09:46:24 435.000
Oscar 11 23 Jan 09:38:47 09:43:07 58° 101° (E) 09:47:24 145.826/435.025
PRISM 23 Jan 09:39:18 09:43:17 44° 261° (W) 09:47:18 437.425
CINEMA 3 23 Jan 09:40:27 09:42:38 14° 299° (WNW) 09:44:50 145.822/145.860
ANTELSAT 23 Jan 09:54:05 09:58:19 78° 76° (ENE) 10:02:38 437.575/2403.000
DELFI C3 23 Jan 09:58:16 10:01:52 32° 96° (E) 10:05:26 145.870
CUTE 1.7 + AOD 2 23 Jan 10:05:19 10:07:29 14° 300° (WNW) 10:09:37 437.475
CUBEBUG 2 23 Jan 10:12:18 10:15:48 24° 294° (WNW) 10:19:23 437.445
QB50P1 23 Jan 10:15:14 10:17:44 16° 61° (ENE) 10:20:14 145.935-145.965
PCSat 23 Jan 10:15:35 10:20:46 46° 245° (WSW) 10:25:54 145.827
FUNcube-1 23 Jan 10:19:32 10:23:47 50° 288° (WNW) 10:28:07 145.935
POLYITAN 1 23 Jan 10:20:08 10:22:55 17° 62° (ENE) 10:25:41 437.675
JAS-2 23 Jan 10:20:57 10:26:16 53° 68° (ENE) 10:32:14 435.910
QB50P2 23 Jan 10:21:17 10:24:15 19° 63° (ENE) 10:27:13 145.880/145.840
HUMSAT D 23 Jan 10:26:36 10:30:38 38° 97° (E) 10:34:39 437.325/437.525
UWE-3 23 Jan 10:33:54 10:37:20 23° 295° (WNW) 10:40:49 435.000/436.395/437.385
COMPASS 1 23 Jan 10:38:41 10:40:34 13° 300° (WNW) 10:42:27 437.405
POPSAT HIP 1 23 Jan 10:41:17 10:44:47 26° 66° (ENE) 10:48:18 437.405
ZACube-1 23 Jan 10:45:00 10:48:42 27° 293° (WNW) 10:52:28 437.345
SO-50 23 Jan 10:46:09 10:48:13 13° 338° (NNW) 10:50:16 436.795
AAUSAT CUBESAT 2 23 Jan 10:46:27 10:48:28 13° 300° (WNW) 10:50:30 437.432
DUCHIFAT 1 23 Jan 10:47:54 10:51:24 27° 66° (ENE) 10:54:55 145.980
NANOSAT C BR1 23 Jan 10:54:53 10:58:39 34° 68° (ENE) 11:02:27 145.865
BY70-1 23 Jan 10:56:21 10:58:12 14° 91° (E) 10:59:59 436.1900
UNISAT 6 23 Jan 11:03:39 11:06:52 21° 267° (W) 11:10:07 437.425
BUGSAT 1 23 Jan 11:09:57 11:12:40 18° 63° (ENE) 11:15:22 437.445
Oscar 11 23 Jan 11:15:59 11:18:48 17° 299° (WNW) 11:21:38 145.826/435.025
TIGRISAT 23 Jan 11:16:30 11:19:16 17° 269° (W) 11:22:03 435.000
HO-68 23 Jan 11:24:02 11:27:04 13° 317° (NW) 11:30:06 435.675
RS-15 23 Jan 11:25:31 11:32:35 18° 266° (W) 11:39:32 29.354- 29.394
DELFI C3 23 Jan 11:33:18 11:36:33 24° 294° (WNW) 11:39:45 145.870
Cosmos 2491 23 Jan 11:33:19 11:39:32 21° 56° (ENE) 11:45:44 435.465 / 435.565
ANTELSAT 23 Jan 11:34:31 11:35:38 11° 273° (W) 11:36:44 437.575/2403.000
AISAT 23 Jan 11:38:06 11:39:37 12° 88° (E) 11:41:07 437.250
Oscar 19 23 Jan 11:48:33 11:52:00 18° 58° (ENE) 11:55:27 437.125/150
QB50P1 23 Jan 11:48:55 11:53:03 60° 259° (W) 11:57:13 145.935-145.965
POLYITAN 1 23 Jan 11:54:15 11:58:19 52° 260° (W) 12:02:27 437.675
QB50P2 23 Jan 11:55:40 11:59:43 47° 261° (W) 12:03:48 145.880/145.840
HUMSAT D 23 Jan 12:02:36 12:06:03 24° 295° (WNW) 12:09:30 437.325/437.525
JAS-2 23 Jan 12:07:23 12:11:50 25° 270° (W) 12:16:41 435.910
VELOX 1 23 Jan 12:09:38 12:13:10 23° 94° (E) 12:16:41 145.980
ESTCUBE 1 23 Jan 12:12:15 12:16:47 66° 102° (ESE) 12:21:16 437.505/2401.250
SPROUT 23 Jan 12:13:35 12:16:42 19° 92° (E) 12:19:48 437.525
POPSAT HIP 1 23 Jan 12:16:43 12:20:28 31° 264° (W) 12:24:15 437.405
DUCHIFAT 1 23 Jan 12:23:18 12:27:00 31° 264° (W) 12:30:44 145.980
UKube-1 23 Jan 12:24:35 12:26:07 12° 89° (E) 12:27:39 .
BY70-1 23 Jan 12:25:39 12:28:36 32° 290° (WNW) 12:31:22 436.1900
50 SAT 23 Jan 12:26:11 12:29:06 23° 95° (E) 12:31:57 437.505
Gurwin Techsat 1B 23 Jan 12:28:41 12:32:44 23° 60° (ENE) 12:36:47 435.225
DX 1 23 Jan 12:30:56 12:34:01 19° 92° (E) 12:37:05 434.975-435.025
NANOSAT C BR1 23 Jan 12:31:02 12:34:27 24° 266° (W) 12:37:53 145.865
DANDE 23 Jan 12:39:17 12:41:30 11° 49° (NE) 12:43:44 436.750
BUGSAT 1 23 Jan 12:43:48 12:47:43 47° 260° (W) 12:51:37 437.445
CUBEBUG 1 23 Jan 12:46:51 12:51:13 89° 102° (ESE) 12:55:31 437.445
CUSAT 1 23 Jan 12:56:04 13:02:57 31° 62° (ENE) 13:09:25 437.405
AO-7 23 Jan 12:57:31 13:03:01 20° 43° (NE) 13:08:31 29.400- 29.500
AO-85 23 Jan 13:05:37 13:09:21 24° 115° (ESE) 13:12:54 145.980
AISAT 23 Jan 13:12:14 13:16:38 79° 286° (WNW) 13:21:00 437.250
Oscar 19 23 Jan 13:25:32 13:30:44 75° 257° (WSW) 13:35:58 437.125/150
Cosmos 2491 23 Jan 13:29:06 13:37:56 81° 80° (E) 13:46:47 435.465 / 435.565
TISAT 1 23 Jan 13:29:37 13:32:34 18° 92° (E) 13:35:30 437.305
